Weather History for Pecos, TX

Change the Weather History Date:

Thursday, February 6, 2014

  Actual Average Record
Temperature  
Mean Temperature 22 °F -  
Max Temperature 27 °F 61 °F 87 °F (2009)
Min Temperature 18 °F 29 °F 13 °F (1989)
Degree Days  
Heating Degree Days 42    
Moisture  
Dew Point 14 °F    
Average Humidity 70    
Maximum Humidity 86    
Minimum Humidity 59    
Precipitation  
Precipitation 0.00 in - - ()
Sea Level Pressure  
Sea Level Pressure 30.33 in    
Wind  
Wind Speed 8 mph (East)    
Max Wind Speed 13 mph    
Max Gust Speed -    
Visibility 9 miles    
Events Snow    
Averages and records for this station are not official NWS values.
T = Trace of Precipitation, MM = Missing Value Source: NWS Daily Summary

Daily Weather History Graph

Daily Weather History Graph

Search for Another Location

Airport:

Trip Planner

Search our weather history database for the weather conditions in past years. The results will help you decide how hot, cold, wet, or windy it might be!

Date:

Astronomy

Feb. 06, 2014 Rise Set
Actual Time 7:43 AM CST 6:33 PM CST
Civil Twilight 7:17 AM CST 6:58 PM CST
Nautical Twilight 6:49 AM CST 7:27 PM CST
Astronomical Twilight 6:20 AM CST 7:56 PM CST
Moon 12:08 PM CST (2/6) 1:01 AM CST (2/6)
Length of Visible Light 11h 40m
Length of Day
10h 50m
Waxing Crescent, 49% of the Moon is Illuminated
Feb 6
Waxing Crescent
Feb 6
First Quarter
Feb 14
Full
Feb 22
Last Quarter
Mar 1
New

Hourly Weather History & Observations

Time (CST) Temp. Windchill Dew Point Humidity Pressure Visibility Wind Dir Wind Speed Gust Speed Precip Events Conditions
12:15 AM 23.9 °F 14.2 °F 13.1 °F 63% 30.38 in 10.0 mi East 9.2 mph - N/A   Overcast
12:35 AM 23.9 °F 14.2 °F 13.1 °F 63% 30.39 in 10.0 mi NE 9.2 mph - N/A   Overcast
12:55 AM 23.9 °F 15.0 °F 13.3 °F 64% 30.38 in 10.0 mi ENE 8.1 mph - N/A   Overcast
1:15 AM 23.4 °F 12.8 °F 12.7 °F 64% 30.37 in 10.0 mi ENE 10.4 mph - N/A   Overcast
1:35 AM 23.0 °F 12.4 °F 12.7 °F 65% 30.38 in 10.0 mi ENE 10.4 mph - N/A   Overcast
1:55 AM 22.8 °F 13.6 °F 12.7 °F 65% 30.39 in 10.0 mi ENE 8.1 mph - N/A   Overcast
2:15 AM 22.6 °F 12.6 °F 12.7 °F 66% 30.39 in 10.0 mi ENE 9.2 mph - N/A   Overcast
2:35 AM 22.5 °F 11.7 °F 13.3 °F 68% 30.39 in 10.0 mi NE 10.4 mph - N/A   Overcast
2:55 AM 21.6 °F 9.9 °F 13.8 °F 72% 30.38 in 10.0 mi NE 11.5 mph - N/A   Overcast
3:15 AM 21.2 °F 10.1 °F 13.5 °F 72% 30.37 in 10.0 mi ENE 10.4 mph - N/A   Overcast
3:35 AM 20.7 °F 8.8 °F 13.3 °F 73% 30.38 in 10.0 mi NE 11.5 mph - N/A   Overcast
3:55 AM 20.3 °F 7.7 °F 13.6 °F 75% 30.37 in 10.0 mi NE 12.7 mph - N/A   Overcast
4:15 AM 19.9 °F 7.9 °F 13.5 °F 76% 30.38 in 10.0 mi ENE 11.5 mph - N/A   Overcast
4:35 AM 19.9 °F 9.3 °F 13.6 °F 77% 30.38 in 10.0 mi ENE 9.2 mph - N/A   Overcast
4:55 AM 19.9 °F 9.3 °F 13.1 °F 75% 30.38 in 10.0 mi ENE 9.2 mph - N/A   Overcast
5:15 AM 19.9 °F 9.3 °F 13.3 °F 75% 30.39 in 10.0 mi ENE 9.2 mph - N/A Snow Light Snow
5:35 AM 19.8 °F 9.1 °F 13.1 °F 75% 30.40 in 10.0 mi NE 9.2 mph - N/A Snow Light Snow
5:55 AM 19.6 °F 8.9 °F 13.3 °F 77% 30.39 in 10.0 mi ENE 9.2 mph - N/A   Overcast
6:15 AM 19.4 °F 9.5 °F 13.6 °F 78% 30.40 in 10.0 mi East 8.1 mph - N/A Snow Light Snow
6:35 AM 19.2 °F 9.3 °F 14.0 °F 80% 30.40 in 10.0 mi ENE 8.1 mph - N/A   Overcast
6:55 AM 18.9 °F 9.8 °F 14.0 °F 81% 30.40 in 10.0 mi ENE 6.9 mph - N/A   Overcast
7:15 AM 18.5 °F 8.4 °F 14.4 °F 84% 30.40 in 10.0 mi East 8.1 mph - N/A   Overcast
7:35 AM 18.5 °F 9.3 °F 14.4 °F 84% 30.41 in 10.0 mi East 6.9 mph - N/A   Overcast
7:55 AM 18.5 °F 9.3 °F 14.5 °F 85% 30.41 in 10.0 mi East 6.9 mph - N/A   Overcast
8:15 AM 18.5 °F 10.4 °F 14.9 °F 86% 30.40 in 7.0 mi ENE 5.8 mph - N/A   Overcast
8:35 AM 18.3 °F 9.1 °F 14.7 °F 86% 30.42 in 7.0 mi East 6.9 mph - N/A   Overcast
8:55 AM 18.5 °F 10.4 °F 14.7 °F 85% 30.42 in 7.0 mi East 5.8 mph - N/A Snow Light Snow
9:15 AM 18.5 °F 10.4 °F 14.9 °F 86% 30.42 in 7.0 mi East 5.8 mph - N/A Snow Light Snow
9:35 AM 18.9 °F 10.8 °F 14.9 °F 85% 30.42 in 5.0 mi East 5.8 mph - N/A Snow Light Snow
9:55 AM 19.4 °F 12.8 °F 15.1 °F 83% 30.43 in 5.0 mi East 4.6 mph - N/A Snow Light Snow
10:15 AM 19.4 °F 12.8 °F 14.9 °F 83% 30.44 in 5.0 mi East 4.6 mph - N/A Snow Light Snow
10:35 AM 20.1 °F 12.3 °F 15.1 °F 81% 30.43 in 5.0 mi East 5.8 mph - N/A Snow Light Snow
10:55 AM 20.3 °F 12.5 °F 15.3 °F 81% 30.43 in 7.0 mi East 5.8 mph - N/A Snow Light Snow
11:15 AM 20.7 °F 14.2 °F 14.9 °F 78% 30.43 in 7.0 mi East 4.6 mph - N/A Snow Light Snow
11:35 AM 20.8 °F 13.2 °F 14.9 °F 78% 30.42 in 7.0 mi ENE 5.8 mph - N/A Snow Light Snow
11:55 AM 21.0 °F 16.2 °F 14.9 °F 77% 30.42 in 10.0 mi ENE 3.5 mph - N/A Snow Light Snow
12:15 PM 21.4 °F 12.8 °F 15.1 °F 77% 30.40 in 10.0 mi ENE 6.9 mph - N/A   Overcast
12:35 PM 22.5 °F 16.3 °F 15.3 °F 74% 30.39 in 10.0 mi East 4.6 mph - N/A Snow Light Snow
12:55 PM 23.0 °F 18.4 °F 15.1 °F 72% 30.37 in 10.0 mi ENE 3.5 mph - N/A   Overcast
1:15 PM 23.7 °F 17.8 °F 14.9 °F 69% 30.35 in 10.0 mi ENE 4.6 mph - N/A   Overcast
1:35 PM 23.4 °F 18.9 °F 14.9 °F 70% 30.33 in 10.0 mi East 3.5 mph - N/A   Overcast
1:55 PM 23.5 °F - 14.5 °F 69% 30.32 in 10.0 mi Calm Calm - N/A   Overcast
2:15 PM 24.1 °F - 14.7 °F 68% 30.30 in 10.0 mi Calm Calm - N/A   Overcast
2:35 PM 24.8 °F 16.9 °F 14.9 °F 66% 30.29 in 10.0 mi ESE 6.9 mph - N/A   Overcast
2:55 PM 25.2 °F 20.9 °F 14.7 °F 65% 30.28 in 10.0 mi NE 3.5 mph - N/A   Overcast
3:15 PM 26.4 °F 20.9 °F 15.1 °F 62% 30.27 in 10.0 mi ESE 4.6 mph - N/A   Overcast
3:35 PM 26.1 °F 21.9 °F 14.9 °F 63% 30.26 in 10.0 mi SSE 3.5 mph - N/A   Overcast
3:55 PM 26.6 °F 21.2 °F 14.9 °F 61% 30.25 in 10.0 mi East 4.6 mph - N/A   Overcast
4:15 PM 27.1 °F 18.9 °F 15.1 °F 60% 30.23 in 10.0 mi East 8.1 mph - N/A   Overcast
4:35 PM 27.5 °F 21.1 °F 15.1 °F 60% 30.23 in 10.0 mi SE 5.8 mph - N/A   Overcast
4:55 PM 27.3 °F 20.9 °F 14.9 °F 60% 30.23 in 10.0 mi ESE 5.8 mph - N/A   Overcast
5:15 PM 27.1 °F 20.7 °F 14.7 °F 60% 30.24 in 10.0 mi East 5.8 mph - N/A   Overcast
5:35 PM 27.3 °F 22.0 °F 14.7 °F 59% 30.23 in 10.0 mi ESE 4.6 mph - N/A   Overcast
5:55 PM 27.1 °F 21.8 °F 14.7 °F 60% 30.23 in 10.0 mi ESE 4.6 mph - N/A   Overcast
6:15 PM 26.8 °F 21.4 °F 14.5 °F 60% 30.23 in 10.0 mi ENE 4.6 mph - N/A   Overcast
6:35 PM 26.6 °F 21.2 °F 14.5 °F 60% 30.23 in 10.0 mi ENE 4.6 mph - N/A   Overcast
6:55 PM 26.4 °F 18.9 °F 14.2 °F 60% 30.22 in 10.0 mi East 6.9 mph - N/A   Overcast
7:15 PM 26.1 °F 20.5 °F 14.0 °F 60% 30.23 in 10.0 mi ENE 4.6 mph - N/A   Overcast
7:35 PM 26.1 °F 19.4 °F 14.4 °F 61% 30.23 in 10.0 mi East 5.8 mph - N/A   Overcast
7:55 PM 25.9 °F 18.2 °F 14.0 °F 61% 30.22 in 10.0 mi East 6.9 mph - N/A   Scattered Clouds
8:15 PM 25.3 °F 17.6 °F 13.8 °F 62% 30.23 in 10.0 mi East 6.9 mph - N/A   Clear
8:35 PM 25.2 °F 18.3 °F 13.8 °F 62% 30.24 in 10.0 mi East 5.8 mph - N/A   Clear
8:55 PM 24.8 °F 16.9 °F 13.6 °F 63% 30.24 in 10.0 mi East 6.9 mph - N/A   Clear
9:15 PM 23.7 °F 16.6 °F 13.3 °F 64% 30.23 in 10.0 mi ENE 5.8 mph - N/A   Clear
9:35 PM 23.5 °F 17.6 °F 13.6 °F 66% 30.23 in 10.0 mi ENE 4.6 mph - N/A   Clear
9:55 PM 23.9 °F 18.0 °F 14.0 °F 66% 30.23 in 10.0 mi ENE 4.6 mph - N/A   Clear
10:15 PM 24.4 °F 17.5 °F 14.0 °F 65% 30.23 in 10.0 mi ENE 5.8 mph - N/A   Scattered Clouds
10:35 PM 24.6 °F 18.8 °F 14.0 °F 64% 30.23 in 10.0 mi East 4.6 mph - N/A   Scattered Clouds
10:55 PM 24.6 °F 16.7 °F 14.0 °F 64% 30.22 in 10.0 mi East 6.9 mph - N/A   Scattered Clouds
11:15 PM 24.8 °F 16.9 °F 14.0 °F 64% 30.22 in 10.0 mi East 6.9 mph - N/A   Overcast
11:35 PM 25.2 °F 18.3 °F 14.5 °F 64% 30.21 in 10.0 mi East 5.8 mph - N/A   Scattered Clouds
11:55 PM 25.2 °F 17.3 °F 14.5 °F 64% 30.21 in 10.0 mi East 6.9 mph - N/A   Clear